Washington State Current Weather Observations

 
 ASUS46 KSEW 172110
 RWRWA 
 
 WASHINGTON REGIONAL WEATHER ROUNDUP
 NATIONAL WEATHER SERVICE SEATTLE WA
 100 PM PST SAT FEB 17 2018
 
 NOTE:"FAIR" INDICATES FEW OR NO CLOUDS BELOW 12,000 FEET WITH NO 
 SIGNIFICANT WEATHER AND/OR OBSTRUCTIONS TO VISIBILITY.
 
 WAZ507-509-555>559-172200-
 SEATTLE, TACOMA, EVERETT, AND VICINITY
   
 CITY           SKY/WX    TMP DP  RH WIND       PRES   REMARKS
 EVERETT        CLOUDY    44  43  96 N6        29.54F                  
 BOEING FIELD   MOSUNNY   51  42  71 S15G21    29.59F                  
 RENTON         MOSUNNY   51  41  68 S20G32    29.60F                  
 SEATAC AIRPORT PTSUNNY   48  41  76 SW20G37   29.59F                  
 JBLM-MCCHORD   PTSUNNY   45  45 100 W28G44      N/A                   
 PUYALLUP       DRIZZLE   46  45  93 W21G31    29.65F                  
 BREMERTON      MOSUNNY   49  40  71 SW25G36   29.57F                  
 JBLM-FT LEWIS  LGT RAIN  45  45 100 SW21G38   29.66R                  
 TACOMA NARROWS LGT RAIN  45  41  86 SW16G31   29.64R                  
 
WAZ001-503-506-510-514-515-172200- NORTH INTERIOR CITY SKY/WX TMP DP RH WIND PRES REMARKS BELLINGHAM PTSUNNY 47 37 68 SW8G23 29.49R FRIDAY HARBOR PTSUNNY 45 35 68 SW20G33 29.53F EASTSOUND PTSUNNY 48 37 66 S18G26 29.49S PORT ANGELES CLOUDY 45 40 82 W16G24 29.56F EDIZ HOOK CLOUDY 42 38 84 W16 29.57F PORT TOWNSEND PTSUNNY 45 41 87 NW16G25 29.55F NAS WHIDBEY PTSUNNY 48 38 68 W29G41 29.59S ARLINGTON RAIN 43 39 86 W16G26 29.56F BURLINGTON MOSUNNY 46 37 71 SW16G30 29.53F
WAZ020-022-039-040-504-511-512-172200- SOUTHWEST INTERIOR CITY SKY/WX TMP DP RH WIND PRES REMARKS SHELTON LGT RAIN 46 41 82 SW21G35 29.64S OLYMPIA LGT RAIN 45 42 89 W25G33 29.68S CHEHALIS FAIR 46 43 87 W10G29 29.75R KELSO CLOUDY 52 44 74 SW16G28 29.79F VANCOUVER CLOUDY 53 45 74 SW9G20 29.81F SCAPPOOSE, OR LGT RAIN 51 45 79 SW10 29.79F PORTLAND, OR CLOUDY 54 45 71 W14G23 29.82S
WAZ021-516-517-172200- WASHINGTON COAST CITY SKY/WX TMP DP RH WIND PRES REMARKS FORKS LGT RAIN 43 38 82 W18G33 29.64F HOQUIAM CLOUDY 46 40 79 SW23G33 29.73F ASTORIA, OR CLOUDY 47 44 90 W15G28 29.82F
WAZ019-023-024-040-567>569-172200- CASCADE MOUNTAINS AND COLUMBIA GORGE CITY SKY/WX TMP DP RH WIND PRES REMARKS STAMPEDE PASS NOT AVBL TROUTDALE, OR LGT RAIN 53 48 83 SW16G31 29.81F HOOD RIVER, OR LGT RAIN 50 45 81 W8 29.68F THE DALLES, OR CLOUDY 61 39 44 W30G54 29.61F
WAZ026-027-041>044-520-521-172200- EAST SLOPES CITY SKY/WX TMP DP RH WIND PRES REMARKS OMAK CLOUDY 32 32 100 N3 29.44F FOG WENATCHEE LGT RAIN 35 35 100 CALM 29.46F ELLENSBURG LGT RAIN 39 35 86 NW10 29.49S YAKIMA PTSUNNY 60 35 39 W31G48 29.49F SUNNYSIDE ARPT MOCLDY 55 34 44 SW36G47 29.54S YAKIMA TC MOCLDY 55 34 44 W21G37 29.47F
WAZ028-034-035-172200- COLUMBIA BASIN CITY SKY/WX TMP DP RH WIND PRES REMARKS EPHRATA MOSUNNY 52 34 50 SW16G24 29.45F MOSES LAKE PTSUNNY 55 36 48 SW25G32 29.45F PASCO CLOUDY 53 40 61 SE10 29.56F RICHLAND ARPT CLOUDY 60 42 50 S23G43 29.53F HERMISTON, OR LGT RAIN 49 44 83 W9 29.62F
WAZ036>038-172200- NORTHEAST WASHINGTON CITY SKY/WX TMP DP RH WIND PRES REMARKS SPOKANE GEIGER LGT SNOW 37 36 96 SW22G32 29.49F FOG SPOKANE FELTS CLOUDY 37 34 89 SW12 29.52F FAIRCHILD AFB FLURRIES 37 37 100 S21G29 29.47F COEURDALENE,ID FLURRIES 33 32 96 S13 29.52F WCI 24 DEER PARK LGT SNOW 32 32 100 S3 29.49F FOG
WAZ029>033-172200- SOUTHEAST WASHINGTON CITY SKY/WX TMP DP RH WIND PRES REMARKS PULLMAN LGT RAIN 36 35 96 S13 29.58F LEWISTON, ID CLOUDY 46 36 68 S18G25 29.59F WALLA WALLA LGT RAIN 49 42 77 S20 29.62F PENDLETON, OR LGT RAIN 50 39 66 W13G20 29.63F

Data from: http://www.wrh.noaa.gov/sew/get.php?pil=RWR&sid=WA&version=0&format=printer

Current Observations

Current Weather Conditions by Major Highway
Washington State Current Weather Observations   …  Oregon State Current Weather Observation



48 Hour Forecast


Seattle  …  Vancouver  …  Portland
————————————————————————————————————————
Bend  …  Spokane  …  Richland  …  Pendleton  …  Blue Mountains I-84  …  Yakima
————————————————————————————————————————
Goldendale, Washington Higher Elevations  …  Dallesport Airport - Goldendale  …  Bingen - White Salmon - Hood River  …  Index





Top of Page